EW5925 Weather Reports


time (UTC)temp
C
wind
direction
speed
KPH
gust
KPH
rain 1hr
cm
rain 24hr
cm
rain mn
cm
humidity
%
barometer
mb
20260505111351 20 147 0.0 3.2 0.00 0.03 0.03 90 1017.7
20260505110854 20 147 0.0 0.0 0.00 0.03 0.03 90 1017.6
20260505110351 20 147 0.0 0.0 0.00 0.03 0.03 90 1017.7
20260505102125 20 147 0.0 3.2 0.00 0.03 0.03 89 1017.5
20260505101609 20 147 1.6 3.2 0.00 0.03 0.03 89 1017.3
20260505101111 20 147 0.0 3.2 0.00 0.03 0.03 88 1017.2
20260505100544 20 147 0.0 4.8 0.00 0.03 0.03 88 1017.2
20260505100030 20 147 0.0 4.8 0.00 0.03 0.03 88 1017.1
20260505095527 20 147 1.6 6.4 0.00 0.03 0.03 88 1017.0
20260505095000 20 147 0.0 6.4 0.00 0.03 0.03 87 1017.1
20260505094458 21 82 0.0 0.0 0.00 0.03 0.03 87 1017.2
20260505093958 21 82 0.0 0.0 0.00 0.03 0.03 86 1017.3
20260505093715 21 82 0.0 0.0 0.00 0.03 0.03 86 1017.3
20260505092954 21 82 0.0 0.0 0.00 0.03 0.03 86 1017.2
20260505092453 21 82 0.0 0.0 0.00 0.03 0.03 86 1017.1
20260505091950 21 82 0.0 0.0 0.00 0.03 0.03 86 1017.1
20260505091449 21 82 0.0 0.0 0.00 0.03 0.03 86 1017.0
20260505090952 21 82 0.0 0.0 0.00 0.03 0.03 85 1017.1
20260505090448 21 82 0.0 0.0 0.00 0.03 0.03 86 1017.0
20260505085946 21 82 0.0 0.0 0.00 0.03 0.03 85 1017.0
20260505085446 21 82 0.0 0.0 0.00 0.03 0.03 85 1016.9
20260505084940 21 82 0.0 0.0 0.00 0.03 0.03 85 1016.9
20260505084658 21 82 0.0 0.0 0.00 0.03 0.03 84 1016.7
20260505083934 21 82 0.0 0.0 0.00 0.03 0.03 85 1016.6
20260505083434 22 82 0.0 0.0 0.00 0.03 0.03 84 1016.6
20260505082932 22 82 0.0 0.0 0.00 0.03 0.03 84 1016.5
20260505082433 22 82 0.0 0.0 0.00 0.03 0.03 84 1016.1
20260505082136 22 82 0.0 0.0 0.00 0.03 0.03 84 1016.0
20260505081417 22 82 0.0 0.0 0.00 0.03 0.03 83 1016.1
20260505081106 22 82 0.0 0.0 0.00 0.03 0.03 83 1015.8
20260505080348 22 82 0.0 0.0 0.00 0.03 0.03 83 1015.7
20260505075844 22 82 0.0 0.0 0.00 0.03 0.03 82 1015.8
20260505075345 22 82 0.0 0.0 0.00 0.03 0.03 82 1015.8
20260505074842 22 82 0.0 0.0 0.00 0.03 0.03 82 1015.9
20260505074340 22 82 0.0 0.0 0.00 0.03 0.03 82 1015.8
20260505073838 22 82 0.0 0.0 0.00 0.03 0.03 82 1015.8
20260505073336 22 82 0.0 0.0 0.00 0.03 0.03 82 1015.7
20260505072833 22 82 0.0 3.2 0.00 0.03 0.03 82 1015.7
20260505072332 23 82 0.0 3.2 0.00 0.03 0.03 82 1015.5
20260505071832 23 82 0.0 3.2 0.00 0.03 0.03 82 1015.5
20260505071328 23 82 0.0 3.2 0.00 0.03 0.03 82 1015.4
20260505070826 23 82 0.0 3.2 0.00 0.03 0.03 81 1015.5
20260505070320 23 82 0.0 3.2 0.00 0.03 0.03 81 1015.5
20260505065818 23 82 0.0 4.8 0.00 0.03 0.03 80 1015.3
20260505065316 23 82 1.6 6.4 0.00 0.03 0.03 80 1015.3
20260505064817 23 82 0.0 6.4 0.00 0.03 0.03 80 1015.3
20260505064249 23 83 0.0 8.0 0.00 0.03 0.03 79 1015.2
20260505063956 23 83 0.0 8.0 0.00 0.03 0.03 79 1015.4
20260505063451 23 68 1.6 8.0 0.00 0.03 0.03 78 1015.4
20260505062703 23 68 3.2 8.0 0.00 0.03 0.03 78 1015.5
20260505062145 24 60 1.6 6.4 0.00 0.03 0.03 78 1015.4
20260505061645 24 46 1.6 4.8 0.00 0.03 0.03 77 1015.5
20260505061341 24 46 0.0 4.8 0.00 0.03 0.03 77 1015.4
20260505060558 24 46 1.6 6.4 0.00 0.03 0.03 77 1015.2
20260505055530 24 47 1.6 6.4 0.00 0.03 0.03 76 1015.1
20260505055231 25 47 1.6 6.4 0.00 0.03 0.03 75 1015.0
20260505054510 25 49 1.6 6.4 0.00 0.03 0.03 75 1015.0
20260505054010 25 54 1.6 6.4 0.00 0.03 0.03 74 1015.0
20260505053736 25 51 1.6 6.4 0.00 0.03 0.03 73 1015.1
20260505053007 25 51 3.2 6.4 0.00 0.03 0.03 72 1015.2
20260505052501 25 92 1.6 6.4 0.00 0.03 0.03 71 1015.2
20260505052002 26 92 1.6 6.4 0.00 0.03 0.03 71 1015.2
20260505051502 26 94 1.6 8.0 0.00 0.03 0.03 70 1015.3
20260505051228 26 77 3.2 8.0 0.00 0.03 0.03 70 1015.2
20260505050500 26 14 3.2 6.4 0.00 0.03 0.03 70 1015.2
20260505041439 27 18 3.2 11.3 0.00 0.03 0.03 65 1014.7
20260505040937 27 347 3.2 11.3 0.00 0.03 0.03 64 1014.7
20260505040702 27 10 4.8 11.3 0.00 0.03 0.03 64 1014.6
20260505035935 27 25 4.8 11.3 0.00 0.03 0.03 64 1014.6
20260505035431 27 27 3.2 11.3 0.00 0.03 0.03 65 1014.6
20260505034931 27 52 3.2 11.3 0.00 0.03 0.03 64 1014.5
20260505034424 27 48 1.6 11.3 0.00 0.03 0.03 64 1014.6
20260505033921 27 95 1.6 6.4 0.00 0.03 0.03 64 1014.7
20260505033420 27 165 1.6 8.0 0.00 0.03 0.03 64 1014.6
20260505032922 27 165 3.2 6.4 0.00 0.03 0.03 61 1014.6
20260505032359 27 165 3.2 8.0 0.00 0.03 0.03 60 1014.5
20260505031902 28 122 3.2 8.0 0.00 0.03 0.03 62 1014.6
20260505031616 28 122 1.6 8.0 0.00 0.03 0.03 63 1014.7
20260505031117 28 122 1.6 4.8 0.00 0.03 0.03 65 1014.7
20260505030346 27 122 1.6 4.8 0.00 0.03 0.03 64 1014.7
20260505025844 27 200 1.6 4.8 0.00 0.03 0.03 64 1014.8
20260505025605 27 185 1.6 4.8 0.00 0.03 0.03 64 1014.8
20260505024839 27 185 1.6 4.8 0.00 0.03 0.03 64 1015.0
20260505024338 27 185 1.6 4.8 0.00 0.03 0.03 65 1015.2
20260505023836 27 93 1.6 4.8 0.00 0.03 0.03 65 1015.3
20260505023335 27 101 1.6 4.8 0.00 0.03 0.03 65 1015.5
20260505022836 26 101 1.6 4.8 0.00 0.03 0.03 65 1015.4
20260505022333 26 101 1.6 4.8 0.00 0.03 0.03 65 1015.5
20260505022045 27 94 1.6 8.0 0.00 0.03 0.03 65 1015.7
20260505021328 27 94 1.6 8.0 0.00 0.03 0.03 65 1015.5
20260505020841 27 214 1.6 8.0 0.00 0.03 0.03 65 1015.5
20260505020330 27 208 1.6 8.0 0.00 0.03 0.03 64 1015.6
20260505015800 27 100 1.6 6.4 0.00 0.03 0.03 64 1015.7
20260505015242 27 93 1.6 6.4 0.00 0.03 0.03 64 1015.8
20260505014743 27 82 1.6 6.4 0.00 0.03 0.03 64 1015.8
20260505014215 27 74 1.6 6.4 0.00 0.03 0.03 64 1015.9
20260505013916 27 74 3.2 6.4 0.00 0.03 0.03 64 1016.0
20260505013157 27 160 1.6 6.4 0.00 0.03 0.03 63 1016.1
20260505012855 27 160 1.6 4.8 0.00 0.03 0.03 68 1016.2
20260505012129 27 160 3.2 6.4 0.00 0.03 0.03 68 1016.5
20260505011627 26 149 1.6 6.4 0.00 0.03 0.03 69 1016.6
20260505011343 26 125 1.6 6.4 0.00 0.03 0.03 70 1016.7
20260505010622 26 125 3.2 6.4 0.00 0.03 0.03 69 1016.9
20260505010352 26 125 3.2 6.4 0.00 0.03 0.03 68 1016.9
20260505005617 26 133 1.6 6.4 0.00 0.03 0.03 69 1017.0
20260505005115 26 133 1.6 8.0 0.00 0.03 0.03 69 1017.1
20260505004842 26 206 3.2 8.0 0.00 0.03 0.03 69 1017.1
20260505004114 26 206 3.2 8.0 0.00 0.03 0.03 71 1017.1
20260505003613 26 199 3.2 8.0 0.00 0.03 0.03 72 1017.2
20260505003112 26 330 1.6 6.4 0.00 0.03 0.03 73 1017.2
20260505002613 26 190 1.6 6.4 0.00 0.03 0.03 74 1017.3
20260505002048 25 189 3.2 6.4 0.00 0.03 0.03 75 1017.3
20260505001521 25 198 1.6 6.4 0.00 0.03 0.03 76 1017.4
20260505000956 25 198 1.6 6.4 0.00 0.03 0.03 77 1017.5
20260505000430 25 228 3.2 8.0 0.00 0.03 0.03 78 1017.5
20260504235901 24 231 3.2 8.0 0.00 0.03 0.03 79 1017.5
20260504235333 24 225 1.6 4.8 0.00 0.03 0.03 80 1017.5
20260504234808 23 225 1.6 6.4 0.00 0.03 0.03 81 1017.6
20260504234240 23 228 3.2 6.4 0.00 0.03 0.03 82 1017.7
20260504233940 23 197 1.6 8.0 0.00 0.03 0.03 83 1017.7
20260504233149 23 254 1.6 8.0 0.00 0.03 0.03 84 1017.8
20260504232630 23 180 3.2 8.0 0.00 0.03 0.03 85 1017.8
20260504232131 23 238 3.2 8.0 0.00 0.03 0.03 86 1017.8
20260504231606 23 200 3.2 9.7 0.00 0.03 0.03 88 1017.8
20260504231036 22 239 3.2 9.7 0.00 0.03 0.03 88 1017.8
20260504230512 22 175 3.2 8.0 0.00 0.03 0.03 90 1017.8
20260504225948 22 219 1.6 8.0 0.00 0.03 0.03 91 1017.8
20260504225423 21 210 1.6 4.8 0.00 0.03 0.03 92 1017.8
20260504224900 21 210 1.6 8.0 0.00 0.03 0.03 93 1017.8
20260504224333 21 210 3.2 8.0 0.00 0.03 0.03 94 1017.7
20260504223820 20 180 3.2 8.0 0.00 0.03 0.03 94 1017.8
20260504223241 20 241 3.2 8.0 0.00 0.03 0.03 95 1017.7
20260504222715 20 203 3.2 6.4 0.00 0.03 0.03 95 1017.8
20260504222147 20 203 1.6 4.8 0.00 0.03 0.03 95 1017.8
20260504221619 20 203 1.6 4.8 0.00 0.03 0.03 95 1017.7
20260504221118 19 203 0.0 3.2 0.00 0.03 0.03 95 1017.7
20260504220836 19 203 0.0 3.2 0.00 0.03 0.03 95 1017.8
20260504220114 19 203 1.6 4.8 0.00 0.03 0.03 95 1017.7
20260504215611 18 203 1.6 4.8 0.00 0.03 0.03 95 1017.7
20260504215111 18 203 0.0 3.2 0.00 0.03 0.03 95 1017.7
20260504214611 18 252 0.0 3.2 0.00 0.03 0.03 95 1017.7
20260504214109 18 252 0.0 6.4 0.00 0.03 0.03 95 1017.7
20260504213609 18 252 0.0 6.4 0.00 0.03 0.03 95 1017.7
20260504213106 18 253 0.0 3.2 0.00 0.03 0.03 95 1017.7
20260504212824 18 253 0.0 3.2 0.00 0.03 0.03 95 1017.7
20260504212327 17 252 0.0 3.2 0.00 0.03 0.03 95 1017.6
20260504212040 17 253 1.6 4.8 0.00 0.03 0.03 95 1017.6
20260504211058 17 253 1.6 4.8 0.00 0.03 0.03 95 1017.5
20260504211035 17 149 0.0 0.0 0.00 0.03 0.03 95 1017.5
20260504210109 17 149 0.0 0.0 0.00 0.03 0.03 95 1017.4
20260504205553 17 149 0.0 0.0 0.00 0.03 0.03 94 1017.3
20260504205052 17 149 0.0 3.2 0.00 0.03 0.03 94 1017.3
20260504204552 17 149 0.0 3.2 0.00 0.03 0.03 94 1017.2
20260504204052 17 149 0.0 3.2 0.00 0.03 0.03 94 1017.2
20260504203553 17 149 0.0 3.2 0.00 0.03 0.03 94 1017.1
20260504203054 17 148 0.0 3.2 0.00 0.03 0.03 94 1017.2
20260504202814 17 148 0.0 3.2 0.00 0.03 0.03 94 1017.1
20260504202048 17 202 1.6 3.2 0.00 0.03 0.03 94 1017.1
20260504201550 17 202 0.0 3.2 0.00 0.03 0.03 94 1017.0
20260504201043 17 202 0.0 3.2 0.03 0.03 0.03 94 1017.0
20260504200541 17 202 0.0 3.2 0.03 0.03 0.03 94 1016.8
20260504200039 17 202 0.0 3.2 0.03 0.03 0.03 94 1016.8
20260504195541 17 202 0.0 1.6 0.03 0.03 0.03 94 1016.7
20260504195304 17 202 1.6 3.2 0.03 0.03 0.03 94 1016.6
20260504194536 17 202 1.6 3.2 0.03 0.03 0.03 94 1016.6
20260504194037 17 202 1.6 3.2 0.03 0.03 0.03 94 1016.5
20260504193536 17 202 0.0 3.2 0.03 0.03 0.03 94 1016.5
20260504193036 17 202 0.0 3.2 0.03 0.03 0.03 94 1016.3
20260504192535 17 202 0.0 4.8 0.03 0.03 0.03 94 1016.3
20260504192033 17 202 0.0 4.8 0.03 0.03 0.03 94 1016.5
20260504191545 17 202 1.6 4.8 0.00 0.00 0.03 94 1016.3
20260504191036 17 202 1.6 4.8 0.00 0.00 0.00 94 1016.2
20260504190527 17 202 0.0 3.2 0.00 0.00 0.00 94 1016.1
20260504190246 17 202 0.0 1.6 0.00 0.00 0.00 94 1016.2
20260504185523 17 202 0.0 1.6 0.00 0.00 0.00 94 1016.1
20260504185026 17 202 0.0 0.0 0.00 0.00 0.00 94 1016.1
20260504184509 17 202 0.0 0.0 0.00 0.00 0.00 94 1016.1
20260504184011 17 202 0.0 1.6 0.00 0.00 0.00 94 1016.2
20260504183446 17 202 0.0 1.6 0.00 0.00 0.00 94 1016.1
20260504182729 18 202 0.0 0.0 0.00 0.00 0.00 94 1016.1
20260504182230 18 202 0.0 0.0 0.00 0.00 0.00 94 1016.0
20260504181942 18 202 0.0 0.0 0.00 0.00 0.00 94 1016.0
20260504181223 18 202 0.0 0.0 0.00 0.00 0.00 94 1015.9
20260504180718 18 202 0.0 0.0 0.00 0.00 0.00 94 1015.9
20260504180224 18 202 0.0 0.0 0.00 0.00 0.00 94 1015.8
20260504175651 18 202 0.0 0.0 0.00 0.00 0.00 94 1015.8
20260504175137 18 202 0.0 1.6 0.00 0.00 0.00 94 1015.8
20260504174903 18 202 0.0 3.2 0.00 0.00 0.00 94 1015.9
20260504174134 18 202 0.0 3.2 0.00 0.00 0.00 94 1016.0
20260504173633 18 202 0.0 3.2 0.00 0.00 0.00 94 1016.0
20260504173133 18 202 0.0 0.0 0.00 0.00 0.00 94 1016.0
20260504172625 18 202 0.0 0.0 0.00 0.00 0.00 94 1015.9
20260504172350 18 202 0.0 0.0 0.00 0.00 0.00 94 1015.8
20260504171623 18 202 0.0 0.0 0.00 0.03 0.00 94 1015.8
20260504171121 18 202 0.0 0.0 0.00 0.03 0.00 94 1015.8
20260504170841 18 202 0.0 0.0 0.00 0.03 0.00 94 1016.0
20260504170117 18 202 0.0 0.0 0.00 0.03 0.00 94 1015.9
20260504160253 18 189 1.6 6.4 0.00 0.03 0.00 94 1016.5
20260504151006 17 89 0.0 0.0 0.00 0.03 0.00 92 1016.5
20260504150505 17 89 0.0 0.0 0.00 0.03 0.00 92 1016.6
20260504140939 17 89 0.0 0.0 0.00 0.03 0.00 91 1017.1
20260504140921 18 89 0.0 0.0 0.00 0.03 0.00 91 1017.2
20260504130620 18 89 0.0 0.0 0.00 0.03 0.03 91 1017.5
20260504120317 19 89 0.0 0.0 0.00 0.03 0.03 90 1017.8